Wind_Speed
13 14 14 13 14 14 14 14 14 13 13 13 12 12 11 12 12 12 12 12 11 11 11 12 12 11 11 12 11 11 11 11 11 12 12 12 12 12 12 12 13 13 13 13
14 14 13 14 14 15 15 14 14 14 13 14 13 13 12 12 12 12 12 12 12 12 12 13 13 13 13 13 12 12 12 12 12 12 12 12 12 12 12 12 13 13 13 14
14 14 14 15 15 14 15 14 14 14 14 15 14 13 12 12 13 13 13 13 13 13 13 13 13 13 14 14 14 13 13 13 13 12 12 12 12 12 12 13 13 13 14 14
14 14 15 15 15 14 14 14 15 15 15 16 15 14 13 13 13 13 13 13 13 13 14 14 14 14 14 15 15 14 14 14 13 13 13 13 13 13 13 14 14 14 15 15
14 15 15 15 15 15 14 15 15 16 16 16 16 15 13 13 13 13 14 14 14 14 15 14 14 14 14 15 15 15 15 15 15 14 14 14 14 14 14 14 15 15 16 16
15 15 16 15 15 15 15 15 16 17 17 16 16 16 13 14 13 13 14 15 15 15 15 15 15 14 15 15 16 16 16 16 16 16 15 15 15 15 16 16 16 17 17 17
15 16 16 16 16 16 16 17 17 17 17 16 16 16 14 14 14 14 14 15 15 15 16 16 16 16 16 16 16 16 16 16 17 17 17 17 17 17 17 17 17 18 18 18
16 16 16 16 16 17 17 18 18 19 18 17 17 17 14 15 14 15 15 15 16 16 16 16 16 16 17 17 17 17 17 17 18 18 19 19 18 18 19 19 19 19 19 19
15 16 16 16 16 18 18 19 19 20 20 20 18 17 15 15 15 16 16 16 16 16 16 17 18 18 18 18 18 19 19 19 19 20 20 20 20 20 20 20 20 20 20 20
16 17 17 18 18 19 20 20 20 21 22 22 20 18 16 16 16 17 17 17 17 17 17 18 19 20 19 20 20 21 20 20 20 21 21 21 21 21 21 21 20 21 20 20
18 18 18 19 20 20 21 21 22 23 24 24 22 19 18 17 17 18 18 19 19 18 18 19 20 21 21 21 22 22 22 22 22 22 22 22 22 22 22 22 21 22 21 21
19 20 20 19 20 21 22 22 23 24 24 25 24 21 20 20 20 19 20 20 20 20 20 20 20 21 22 22 22 23 23 23 23 23 22 22 23 22 22 23 23 22 23 22
20 21 21 21 22 22 23 23 24 25 26 26 26 23 21 21 22 22 22 22 22 22 22 21 21 21 22 22 23 23 23 23 23 23 23 23 23 23 23 23 24 24 23 23
22 23 23 23 23 23 24 24 25 27 28 28 27 24 23 23 24 24 24 24 24 23 23 23 22 22 22 23 23 24 24 24 24 24 24 23 23 24 24 24 24 24 24 24
24 24 24 24 24 25 25 26 26 28 29 29 28 27 24 25 25 25 25 25 25 25 25 25 24 24 24 24 24 24 24 24 25 25 25 25 25 25 25 25 25 25 26 26
26 26 26 26 26 27 28 27 27 28 28 29 29 28 26 27 28 27 27 27 27 26 26 26 26 25 25 25 25 25 25 25 26 25 25 26 26 26 26 27 27 27 27 27
27 28 28 28 27 29 30 28 28 29 28 29 29 28 27 28 28 28 28 28 28 28 28 28 27 27 27 27 26 25 26 26 26 26 26 27 28 27 27 28 28 28 28 28
28 29 29 29 29 31 29 29 29 30 29 29 29 28 28 28 27 28 29 29 29 29 29 29 29 28 28 28 27 27 27 27 27 27 27 27 27 28 28 29 29 29 29 30
29 29 30 31 32 32 30 29 30 30 30 29 29 29 28 28 29 29 29 30 30 30 30 29 29 29 29 29 28 28 29 29 29 29 28 28 28 28 29 30 30 30 30 30
29 30 31 31 32 32 30 29 30 31 30 28 28 28 28 29 30 29 30 30 30 31 31 30 30 30 29 29 29 29 29 30 29 30 30 30 30 31 31 31 32 32 32 32
30 31 31 32 32 32 30 30 30 30 29 29 28 28 29 29 30 30 30 30 30 30 30 30 30 30 29 29 29 30 30 30 30 30 31 31 32 32 33 33 33 33 33 32
30 31 31 32 32 31 29 29 30 30 31 30 30 29 29 30 30 30 30 31 31 31 31 30 30 30 30 30 31 31 31 31 31 32 32 32 33 33 34 34 34 34 34 34
29 29 30 32 32 30 30 30 30 30 31 31 31 30 30 31 31 31 32 32 32 31 31 30 30 30 30 31 31 32 32 32 32 32 33 33 34 33 33 33 34 34 34 34
27 28 29 30 30 31 31 31 31 30 30 31 30 30 30 31 31 31 32 32 32 32 31 31 31 31 32 32 32 32 33 33 33 33 33 34 34 34 34 34 33 33 34 34
26 28 29 30 30 30 30 31 31 31 30 30 30 31 31 31 31 31 31 31 31 31 31 31 32 32 32 32 32 33 33 33 33 33 33 34 33 34 34 34 34 34 34 34
26 28 29 29 29 29 29 29 30 30 30 30 30 31 31 31 31 31 30 30 29 30 30 30 31 32 32 33 33 33 34 33 33 34 34 33 33 33 33 33 33 33 34 33
Wind_Direction
248 247 247 247 246 245 244 245 246 249 253 256 258 259 259 260 261 260 261 262 264 266 268 271 274 274 275 275 276 277 278 277 280 283 286 287 287 289 290 290 292 293 292 293
246 247 245 243 243 243 244 246 246 250 254 257 259 259 259 260 260 260 260 261 264 265 268 270 273 274 275 276 278 278 278 277 280 283 283 286 288 290 292 292 294 294 293 294
248 246 244 244 244 244 245 246 248 252 256 257 259 256 258 260 261 261 261 264 267 267 268 270 274 275 274 275 276 277 277 278 277 280 282 285 287 289 292 292 293 294 294 293
248 245 245 245 245 245 245 246 249 252 256 257 259 258 258 262 264 265 266 266 268 270 270 271 274 275 274 273 273 274 276 276 277 279 282 284 286 288 290 291 291 292 293 292
247 247 246 246 246 245 245 248 251 254 257 258 258 261 259 261 264 268 269 268 269 269 270 271 272 274 274 273 272 273 275 276 278 280 281 284 286 288 290 290 288 289 291 292
249 247 245 246 246 246 246 250 254 256 259 259 261 264 262 262 265 267 269 269 270 269 270 270 271 272 274 274 274 274 276 278 279 280 282 283 284 286 287 287 286 286 288 290
253 248 246 245 245 245 247 251 255 257 260 262 262 265 264 262 263 265 268 268 268 268 269 270 271 271 273 276 276 275 277 278 279 279 281 282 283 284 286 286 285 285 286 288
253 248 246 246 246 249 251 254 258 263 264 264 263 265 265 264 264 265 267 269 269 268 268 269 269 271 273 275 276 277 278 278 278 278 279 280 281 282 284 284 284 284 284 285
255 249 245 246 248 250 251 255 260 263 266 266 266 268 265 265 267 268 268 268 270 271 270 270 271 272 274 275 276 277 278 278 278 278 278 279 280 280 282 283 284 284 283 284
257 253 245 246 248 251 252 254 256 261 266 268 267 268 268 268 269 269 270 271 272 273 274 274 274 275 276 276 276 276 276 277 278 279 278 277 279 279 280 281 283 284 284 283
260 255 249 249 250 252 252 251 255 261 265 268 270 269 270 271 271 270 270 272 271 272 274 275 275 276 276 277 276 276 276 276 277 279 279 278 278 278 278 279 281 282 284 284
263 262 257 255 255 254 254 254 257 260 264 267 270 270 270 271 271 271 271 272 272 273 273 274 275 276 277 277 277 276 277 277 276 276 277 278 278 277 278 278 279 280 282 283
262 261 259 256 255 256 258 258 260 262 264 267 269 272 272 271 271 271 271 270 271 273 274 274 276 277 277 277 276 277 277 277 276 276 275 275 276 277 277 278 277 278 280 281
261 261 260 259 259 259 260 261 261 262 265 268 271 273 271 269 269 270 270 270 270 272 274 275 276 277 277 276 276 276 277 277 278 277 276 275 276 277 279 279 278 278 279 280
260 261 262 262 261 259 260 261 262 263 266 268 270 271 271 269 268 268 268 270 270 271 273 274 275 276 276 276 275 277 276 277 278 279 277 276 275 276 277 278 278 277 278 278
260 261 262 263 262 262 261 261 263 264 266 267 269 270 271 269 268 268 269 269 270 270 271 272 273 275 276 277 276 276 276 276 277 278 277 276 276 277 277 276 276 276 277 278
262 262 263 264 264 264 263 264 265 266 268 268 269 270 269 268 267 268 268 267 267 268 270 271 272 274 275 277 276 275 277 276 277 278 277 276 276 277 277 277 276 275 276 277
263 264 264 265 264 263 266 267 268 269 270 270 269 270 269 270 268 267 267 268 267 268 270 272 273 274 275 276 276 275 276 276 276 276 276 276 275 277 278 278 278 276 276 276
264 264 265 265 265 266 267 269 269 270 271 271 270 270 270 269 269 268 269 269 269 269 269 271 272 273 273 275 276 277 278 277 276 275 276 275 274 276 277 278 278 278 277 276
265 264 265 267 267 268 269 270 271 270 269 271 271 269 269 269 269 270 271 271 270 269 270 271 271 272 272 275 277 278 279 279 278 278 278 276 275 276 277 277 277 278 276 276
265 265 265 267 268 269 270 271 272 271 272 272 271 270 270 270 271 272 271 271 271 272 271 271 270 270 272 275 277 278 279 280 279 280 279 277 276 276 276 277 277 277 276 277
267 268 268 268 268 269 272 271 270 271 271 270 269 269 269 269 270 272 272 272 271 271 271 271 270 270 272 274 276 277 279 279 279 279 279 279 279 278 277 276 277 276 276 277
270 270 269 269 269 272 271 270 271 272 272 271 270 268 268 269 270 270 271 272 272 271 272 271 271 272 273 274 276 278 278 278 278 279 279 279 279 279 278 277 277 277 278 278
273 271 270 269 268 268 270 270 271 273 274 272 271 270 270 271 271 271 272 272 272 272 273 273 272 272 273 274 275 276 277 278 279 279 279 279 279 279 279 278 278 279 279 279
274 272 270 269 267 267 268 270 272 274 274 273 272 272 272 273 273 274 273 273 273 273 273 272 271 272 273 273 273 275 276 276 278 279 279 278 278 279 279 279 279 279 280 280
274 274 273 271 271 270 270 271 272 273 273 272 271 271 272 272 274 274 274 275 275 275 274 273 273 273 273 273 273 275 276 278 279 280 279 278 278 278 279 279 280 280 280 280
Height
5828 5830 5831 5833 5834 5835 5836 5837 5838 5840 5840 5841 5842 5842 5843 5843 5843 5844 5844 5844 5844 5845 5845 5844 5844 5844 5844 5844 5844 5843 5843 5842 5842 5841 5841 5840 5840 5839 5838 5838 5837 5836 5835 5835
5826 5827 5829 5829 5830 5831 5833 5834 5836 5837 5837 5838 5839 5840 5840 5840 5841 5841 5841 5842 5842 5842 5842 5842 5841 5841 5841 5841 5841 5840 5840 5839 5839 5838 5838 5838 5837 5836 5835 5835 5834 5833 5832 5831
5822 5825 5825 5826 5827 5829 5830 5832 5833 5834 5834 5835 5836 5837 5837 5837 5838 5838 5838 5839 5839 5839 5839 5839 5838 5838 5838 5837 5837 5837 5837 5836 5836 5835 5835 5834 5834 5833 5832 5832 5831 5830 5829 5828
5819 5821 5822 5823 5824 5826 5828 5829 5830 5831 5831 5832 5833 5834 5835 5835 5835 5835 5835 5836 5836 5836 5836 5836 5835 5835 5834 5834 5834 5834 5833 5833 5833 5832 5832 5831 5831 5830 5829 5829 5828 5827 5826 5825
5817 5818 5819 5820 5822 5823 5825 5826 5827 5827 5828 5829 5829 5830 5833 5832 5832 5832 5832 5832 5832 5832 5832 5832 5832 5831 5831 5830 5830 5830 5830 5830 5829 5829 5828 5828 5827 5827 5826 5825 5824 5823 5822 5821
5814 5815 5816 5818 5819 5820 5822 5823 5823 5824 5824 5826 5827 5827 5829 5829 5829 5829 5829 5829 5829 5829 5829 5828 5828 5828 5827 5826 5826 5826 5826 5826 5825 5825 5824 5824 5823 5822 5822 5821 5820 5819 5818 5817
5811 5812 5813 5814 5816 5817 5819 5820 5820 5820 5821 5823 5823 5823 5826 5826 5826 5826 5826 5826 5826 5825 5825 5825 5824 5824 5823 5823 5822 5822 5822 5822 5821 5821 5820 5820 5819 5818 5818 5817 5816 5815 5814 5812
5808 5809 5810 5811 5813 5814 5815 5816 5818 5818 5818 5819 5819 5820 5823 5822 5822 5822 5822 5822 5822 5822 5821 5821 5820 5820 5819 5819 5818 5818 5818 5817 5817 5816 5816 5815 5814 5814 5813 5812 5811 5810 5809 5808
5804 5806 5807 5808 5809 5810 5811 5812 5813 5814 5813 5814 5815 5817 5819 5818 5818 5818 5818 5818 5818 5817 5817 5817 5816 5816 5815 5815 5814 5813 5813 5812 5812 5811 5811 5810 5809 5809 5808 5807 5806 5805 5804 5803
5800 5802 5804 5804 5805 5806 5807 5808 5808 5809 5809 5809 5811 5813 5814 5814 5814 5814 5814 5814 5813 5813 5813 5812 5811 5811 5810 5810 5809 5808 5808 5807 5807 5806 5805 5805 5804 5803 5802 5801 5800 5799 5798 5797
5796 5797 5799 5800 5801 5802 5803 5803 5803 5804 5804 5805 5806 5810 5810 5810 5809 5809 5809 5809 5808 5808 5807 5807 5806 5806 5805 5804 5803 5803 5802 5802 5801 5800 5800 5799 5798 5797 5796 5796 5795 5794 5793 5791
5791 5792 5793 5796 5797 5797 5797 5798 5799 5800 5800 5799 5800 5805 5804 5804 5804 5804 5804 5803 5803 5802 5802 5801 5801 5800 5799 5799 5798 5797 5796 5796 5795 5794 5794 5793 5792 5791 5790 5790 5789 5788 5787 5785
5787 5787 5788 5790 5792 5792 5792 5792 5793 5794 5794 5793 5794 5799 5798 5798 5798 5798 5798 5797 5797 5796 5796 5795 5795 5794 5793 5793 5792 5791 5790 5789 5789 5788 5787 5786 5786 5785 5784 5783 5782 5781 5780 5779
5781 5781 5783 5785 5785 5786 5786 5787 5787 5787 5787 5787 5789 5791 5792 5791 5791 5791 5791 5791 5790 5790 5790 5789 5789 5788 5787 5786 5785 5784 5783 5783 5782 5781 5780 5780 5779 5778 5777 5776 5775 5775 5773 5772
5775 5776 5776 5777 5778 5779 5780 5780 5781 5780 5781 5781 5782 5783 5784 5784 5784 5784 5784 5784 5783 5783 5783 5782 5782 5781 5780 5779 5778 5777 5776 5775 5775 5774 5773 5772 5772 5771 5770 5769 5768 5767 5766 5765
5768 5769 5770 5771 5771 5771 5772 5773 5774 5774 5774 5774 5774 5776 5777 5776 5776 5777 5777 5776 5776 5776 5775 5775 5774 5774 5773 5772 5771 5770 5769 5768 5767 5766 5766 5765 5764 5763 5763 5762 5761 5760 5759 5757
5762 5762 5763 5763 5764 5764 5764 5767 5766 5767 5767 5767 5767 5769 5768 5768 5768 5769 5769 5769 5768 5768 5768 5767 5767 5766 5765 5764 5764 5763 5761 5760 5760 5759 5758 5757 5756 5755 5754 5753 5752 5751 5751 5749
5755 5755 5755 5756 5757 5756 5760 5759 5759 5759 5759 5759 5759 5760 5760 5760 5760 5760 5760 5760 5760 5760 5760 5759 5759 5758 5757 5756 5755 5755 5754 5753 5752 5751 5750 5749 5748 5748 5746 5745 5744 5743 5742 5741
5747 5747 5747 5747 5747 5748 5751 5751 5751 5751 5751 5751 5751 5752 5752 5752 5752 5752 5752 5752 5752 5752 5751 5751 5750 5749 5749 5748 5747 5746 5745 5744 5743 5742 5742 5741 5740 5739 5738 5737 5736 5735 5734 5733
5740 5739 5740 5739 5739 5740 5744 5744 5742 5743 5742 5744 5743 5743 5743 5743 5744 5745 5744 5743 5743 5742 5742 5742 5741 5741 5740 5739 5738 5738 5737 5735 5734 5734 5733 5732 5731 5731 5730 5728 5727 5726 5725 5724
5731 5731 5731 5731 5730 5731 5734 5734 5734 5735 5736 5735 5734 5734 5734 5734 5735 5735 5734 5734 5734 5733 5733 5733 5732 5732 5731 5731 5730 5729 5728 5726 5726 5725 5724 5723 5722 5721 5720 5719 5718 5717 5715 5715
5722 5722 5723 5722 5722 5726 5726 5725 5726 5726 5725 5725 5725 5725 5725 5726 5726 5726 5725 5725 5724 5724 5724 5724 5723 5723 5722 5722 5721 5720 5719 5717 5716 5715 5714 5713 5712 5711 5710 5709 5708 5707 5706 5705
5714 5715 5714 5715 5717 5717 5716 5716 5716 5715 5716 5716 5716 5716 5716 5716 5717 5717 5716 5716 5716 5715 5715 5714 5714 5714 5713 5712 5711 5710 5709 5708 5707 5705 5704 5703 5702 5701 5700 5698 5697 5696 5695 5694
5707 5706 5705 5706 5707 5707 5707 5707 5707 5707 5707 5706 5706 5707 5707 5707 5707 5707 5707 5707 5706 5706 5705 5705 5704 5704 5703 5702 5701 5700 5699 5698 5697 5696 5694 5693 5692 5691 5690 5689 5687 5686 5685 5684
5698 5697 5696 5697 5698 5698 5699 5698 5698 5698 5698 5697 5698 5698 5698 5698 5698 5698 5697 5697 5697 5696 5695 5695 5694 5694 5693 5692 5691 5690 5689 5688 5687 5685 5684 5683 5682 5681 5679 5678 5677 5676 5675 5673
5690 5689 5688 5689 5690 5690 5690 5690 5689 5689 5689 5689 5689 5689 5689 5688 5688 5688 5688 5688 5687 5687 5686 5685 5684 5683 5682 5682 5681 5680 5679 5678 5677 5675 5674 5673 5671 5670 5669 5668 5667 5665 5665 5663